DM1RG-6 Weather Reports


Display with metric or nautical units.
time (UTC)temp
F
wind
direction
speed
MPH
gust
MPH
rain 1hr
in
rain 24hr
in
rain mn
in
humidity
%
barometer
mb
20260505041203 57 40 3.0 4.0 0.00 0.00 0.00 87 1009.2
20260505040603 57 44 2.0 4.0 0.00 0.00 0.00 86 1009.0
20260505040004 57 53 0.0 4.0 0.00 0.00 0.00 86 1009.0
20260505035403 57 0 0.0 0.0 0.00 0.00 0.00 86 1009.1
20260505034803 57 35 1.0 2.0 0.00 0.00 0.00 86 1009.2
20260505034203 57 37 2.0 2.0 0.00 0.00 0.00 86 1009.2
20260505033603 57 45 2.0 2.0 0.00 0.00 0.00 86 1009.1
20260505033004 57 39 3.0 4.0 0.00 0.00 0.00 86 1009.3
20260505032403 57 36 3.0 4.0 0.00 0.00 0.00 85 1009.1
20260505031803 57 26 2.0 4.0 0.00 0.00 0.00 85 1009.3
20260505031203 58 10 1.0 2.0 0.00 0.00 0.00 85 1009.5
20260505030603 58 326 1.0 2.0 0.00 0.00 0.00 85 1009.3
20260505030003 58 315 0.0 2.0 0.00 0.00 0.00 85 1009.3
20260505025403 58 0 0.0 0.0 0.00 0.00 0.00 85 1009.6
20260505024803 58 10 1.0 2.0 0.00 0.00 0.00 85 1009.6
20260505024203 58 13 1.0 2.0 0.00 0.00 0.00 85 1009.3
20260505023603 58 26 1.0 4.0 0.00 0.00 0.00 85 1009.7
20260505023004 58 35 2.0 4.0 0.00 0.00 0.00 85 1009.5
20260505022403 58 13 2.0 4.0 0.00 0.00 0.00 85 1009.6
20260505021804 58 340 1.0 4.0 0.00 0.00 0.00 84 1009.9
20260505021203 58 2 1.0 2.0 0.00 0.00 0.00 84 1009.7
20260505020603 58 350 2.0 4.0 0.00 0.00 0.00 84 1009.8
20260505020004 58 360 2.0 4.0 0.00 0.00 0.00 84 1009.8
20260505015404 58 19 2.0 2.0 0.00 0.00 0.00 85 1009.9
20260505014804 58 16 1.0 2.0 0.00 0.00 0.00 85 1009.8
20260505014203 58 318 0.0 2.0 0.00 0.00 0.00 84 1009.9
20260505013603 58 311 1.0 2.0 0.00 0.00 0.00 84 1010.0
20260505013003 58 319 2.0 4.0 0.00 0.00 0.00 84 1009.8
20260505012403 58 318 3.0 6.0 0.00 0.00 0.00 84 1009.8
20260505011804 58 304 2.0 6.0 0.00 0.00 0.00 84 1010.3
20260505011204 58 278 3.0 4.0 0.00 0.00 0.00 85 1010.2
20260505010603 58 267 4.0 4.0 0.00 0.00 0.00 85 1010.4
20260505010004 58 248 2.0 4.0 0.00 0.00 0.00 85 1010.0
20260505005403 57 0 0.0 0.0 0.00 0.00 0.00 88 1010.0
20260505004803 57 0 0.0 0.0 0.00 0.00 0.00 88 1009.9
20260505004203 57 0 0.0 0.0 0.00 0.00 0.00 88 1009.9
20260505003603 57 0 0.0 0.0 0.00 0.00 0.00 88 1009.9
20260505003004 57 0 0.0 0.0 0.00 0.00 0.00 88 1010.2
20260505002403 57 0 0.0 0.0 0.00 0.00 0.00 89 1009.9
20260505001803 57 0 0.0 0.0 0.00 0.00 0.00 89 1010.1
20260505001204 57 0 0.0 0.0 0.00 0.00 0.00 89 1010.1
20260505000603 57 0 0.0 0.0 0.00 0.00 0.00 90 1010.1
20260505000003 57 0 0.0 0.0 0.00 0.00 0.00 90 1010.6
20260504235403 57 0 0.0 0.0 0.00 0.00 0.00 89 1010.7
20260504234803 57 0 0.0 0.0 0.00 0.00 0.00 89 1010.4
20260504234203 57 0 0.0 0.0 0.00 0.00 0.00 89 1010.5
20260504233603 57 0 0.0 0.0 0.00 0.00 0.00 89 1010.5
20260504233003 57 0 0.0 0.0 0.00 0.00 0.00 89 1010.5
20260504232403 57 0 0.0 0.0 0.00 0.00 0.00 89 1010.6
20260504231803 57 0 0.0 0.0 0.00 0.00 0.00 89 1010.7
20260504231203 56 0 0.0 0.0 0.00 0.00 0.00 89 1010.7
20260504230603 56 0 0.0 0.0 0.00 0.00 0.00 88 1011.0
20260504230003 56 0 0.0 0.0 0.00 0.00 0.00 88 1011.0
20260504225403 57 0 0.0 0.0 0.00 0.00 0.00 88 1010.8
20260504224803 57 0 0.0 0.0 0.00 0.00 0.00 88 1011.1
20260504224203 57 0 0.0 0.0 0.00 0.00 0.00 88 1011.1
20260504223603 57 0 0.0 0.0 0.00 0.00 0.00 89 1011.0
20260504223003 57 0 0.0 0.0 0.00 0.00 0.00 87 1011.0
20260504222403 57 0 0.0 0.0 0.00 0.00 0.00 86 1010.9
20260504221803 57 0 0.0 0.0 0.00 0.00 0.00 86 1010.9
20260504221203 57 0 0.0 0.0 0.00 0.00 0.00 86 1010.9
20260504220603 57 0 0.0 0.0 0.00 0.00 0.00 85 1011.1
20260504220004 58 0 0.0 0.0 0.00 0.00 0.00 84 1011.1
20260504215403 58 0 0.0 0.0 0.00 0.00 0.00 83 1011.3
20260504214803 58 0 0.0 0.0 0.00 0.00 0.00 83 1011.3
20260504214203 59 0 0.0 0.0 0.00 0.00 0.00 81 1011.2
20260504213603 60 0 0.0 0.0 0.00 0.00 0.00 80 1011.0
20260504213003 60 0 0.0 0.0 0.00 0.00 0.00 79 1011.2
20260504212404 60 0 0.0 0.0 0.00 0.00 0.00 79 1011.1
20260504211804 61 45 0.0 2.0 0.00 0.00 0.00 78 1011.1
20260504211203 62 45 0.0 2.0 0.00 0.00 0.00 75 1011.2
20260504210603 62 0 0.0 0.0 0.00 0.00 0.00 76 1011.1
20260504210004 61 0 0.0 0.0 0.00 0.00 0.00 77 1011.0
20260504205404 62 0 0.0 0.0 0.00 0.00 0.00 77 1011.1
20260504204803 61 0 0.0 0.0 0.00 0.00 0.00 77 1011.1
20260504204203 61 0 0.0 0.0 0.00 0.00 0.00 79 1011.2
20260504203604 61 0 0.0 0.0 0.00 0.00 0.00 80 1011.2
20260504203004 61 0 0.0 0.0 0.00 0.00 0.00 79 1011.3
20260504202404 61 0 0.0 0.0 0.00 0.00 0.00 78 1011.4
20260504201804 61 0 0.0 0.0 0.00 0.00 0.00 78 1011.3
20260504201205 61 0 0.0 0.0 0.00 0.00 0.00 79 1011.1
20260504200603 62 0 0.0 0.0 0.00 0.00 0.00 80 1011.2
20260504200003 62 0 0.0 0.0 0.00 0.00 0.00 79 1011.2
20260504195404 62 0 0.0 0.0 0.00 0.00 0.00 75 1011.1
20260504194803 62 0 0.0 0.0 0.00 0.00 0.00 74 1011.1
20260504194203 63 0 0.0 0.0 0.00 0.00 0.00 73 1011.0
20260504193603 62 0 0.0 0.0 0.00 0.00 0.00 73 1011.1
20260504193003 63 0 0.0 0.0 0.00 0.00 0.00 73 1011.1
20260504192404 63 0 0.0 0.0 0.00 0.00 0.00 74 1011.1
20260504191803 63 0 0.0 0.0 0.00 0.00 0.00 75 1011.0
20260504191203 64 0 0.0 0.0 0.00 0.00 0.00 73 1010.9
20260504190603 63 0 0.0 0.0 0.00 0.00 0.00 72 1011.0
20260504190004 64 0 0.0 0.0 0.00 0.00 0.00 70 1010.8
20260504185403 64 0 0.0 0.0 0.00 0.00 0.00 70 1010.6
20260504184803 64 0 0.0 0.0 0.00 0.00 0.00 69 1010.9
20260504184203 65 0 0.0 0.0 0.00 0.00 0.00 67 1010.9
20260504183603 65 0 0.0 0.0 0.00 0.00 0.00 67 1010.9
20260504183003 67 0 0.0 0.0 0.00 0.00 0.00 65 1010.8
20260504182403 67 0 0.0 0.0 0.00 0.00 0.00 63 1010.5
20260504181803 66 0 0.0 0.0 0.00 0.00 0.00 65 1010.7
20260504181203 67 0 0.0 0.0 0.00 0.00 0.00 65 1010.7
20260504180603 68 0 0.0 0.0 0.00 0.00 0.00 63 1010.7
20260504180004 69 0 0.0 0.0 0.00 0.00 0.00 63 1010.5
20260504175403 70 0 0.0 0.0 0.00 0.00 0.00 58 1010.7
20260504174803 71 305 0.0 2.0 0.00 0.00 0.00 55 1010.7
20260504174203 71 294 2.0 4.0 0.00 0.00 0.00 54 1010.6
20260504173603 71 293 3.0 4.0 0.00 0.00 0.00 54 1010.6
20260504173003 71 309 3.0 4.0 0.00 0.00 0.00 53 1010.6
20260504172403 71 310 3.0 4.0 0.00 0.00 0.00 53 1010.5
20260504171804 71 306 2.0 4.0 0.00 0.00 0.00 53 1010.6
20260504171203 71 300 1.0 4.0 0.00 0.00 0.00 52 1010.6
20260504170604 71 298 2.0 4.0 0.00 0.00 0.00 52 1010.7
20260504150603 73 300 5.0 11.0 0.00 0.00 0.00 50 1010.8
20260504141203 72 283 8.0 11.0 0.00 0.00 0.00 52 1011.3
20260504140603 72 281 8.0 11.0 0.00 0.00 0.00 52 1011.3
20260504130603 71 290 8.0 14.0 0.00 0.00 0.00 55 1011.7
20260504110604 73 282 5.0 9.0 0.00 0.00 0.00 55 1012.1
20260504100604 71 266 7.0 11.0 0.00 0.00 0.00 56 1012.7
20260504081803 66 252 4.0 6.0 0.00 0.00 0.00 67 1012.8
20260504081203 66 215 3.0 4.0 0.00 0.00 0.00 67 1012.6
20260504080603 66 228 4.0 4.0 0.00 0.00 0.00 66 1012.6
20260504050604 58 0 0.0 0.0 0.00 0.00 0.00 82 1011.7